Погода в Лубанго

Ангола     14°54′55″S   13°29′48″E
В апреле 2022 года жителям России запретили посещать сайт meteo.paraplan.net по решению Генеральной прокуратуры. Аудитория сайта уменьшилась в 10 раз. Владельцы сайта не видят смысла в поддержке погодного сервера в таких условиях. Сайт будет закрыт в октябре.
темп.,
°C
ветер,
м/с
пор.,
м/с
влажн.,
%
обл.,
%
осадки,
мм/ч
давл.,
гПа
погр.,
м
4 октября, вт
вт401:00+17зюз236589 0.0 101443
04:00+16юз226145 0.0 101334
07:00+19ююз24426 0.0 1014148
10:00+27юв56186 0.0 10131572
13:00+30вюв5613100 0.0 10093618
16:00+28зюз272285 0.0 10082293
19:00+19зюз226077 0.0 101362
22:00+18зсз23623 0.0 101444
5 октября, ср
ср501:00+17юз22605 0.0 101321
04:00+16зсз11591 0.0 101311
07:00+20ююз23410 0.0 1014110
10:00+26юв34170 0.0 10131496
13:00+30зюз17161 0.0 10093785
16:00+26з64357 0.0 10101549
19:00+18з355927 0.0 1014177
22:00+17з346484 0.0 101689
6 октября, чт
чт601:00+18з335666 0.0 101452
04:00+17зсз224796 0.0 101416
07:00+20юз123354 0.0 101590
10:00+27юв56145 0.0 10131544
13:00+30юв481396 0.0 10093681
16:00+27зюз5424100 0.0 10081348
19:00+20зюз2342100 0.0 101254
22:00+19з223999 0.0 101328
7 октября, пт
пт701:00+18зюз223696 0.0 101130
04:00+17ссв1137100 0.0 101214
07:00+20ююв15245 0.0 1013275
10:00+28вюв341335 0.0 10111326
13:00+31всв371284 0.0 10074419
16:00+27з5526100 0.0 10071317
19:00+19зсз2355100 0.0 101288
22:00+18зсз356152 0.0 1013106
8 октября, сб
сб801:00+16зсз226468 0.0 101328
04:00+15зсз225875 0.0 101332
07:00+19сз233916 0.0 1014133
10:00+26юз13215 0.0 10121635
13:00+29зсз272228 0.0 10103219
16:00+20зюз455196 0.3 1013729
19:00+16зсз46730 0.4 1014148
22:00+14зсз35852 0.0 1016112